User: anonymous   Login
Location: Unspecified
(0.0000°N, 0.0000°E)
Time: 08:45:58
(UTC+00:00)
Language:

KAITUO 1B - Orbit

View from above orbital plane
View from above orbital plane
View from above satellite
View from above satellite

Ground track
Ground track

The orbit data is extracted from the following two-line orbital elements,

1 40912U 15049P   19345.95902051 +.00000819 +00000-0 +41259-4 0  9991
2 40912 097.4497 351.0623 0013220 278.6580 140.5468 15.19934356234083
Epoch (UTC): 11 December 2019 23:00:59
Eccentricity: 0.0013220
inclination: 97.4497°
perigee height: 497 km
apogee height: 515 km
right ascension of ascending node: 351.0623°
argument of perigee: 278.6580°
revolutions per day: 15.19934356
mean anomaly at epoch: 140.5468°
orbit number at epoch: 23408

The dashed part of the orbit path shows where the satellite is in the earth's shadow,  

DLR